Time,TemperatureF,DewpointF,PressureIn,WindDirection,WindDirectionDegrees,WindSpeedMPH,WindSpeedGustMPH,Humidity,HourlyPrecipIn,Conditions,Clouds,dailyrainin,SoftwareType,DateUTC
2013-04-21 00:07:00,28.9,25.0,30.42,NNE,26,0.0,2.0,84,0.00,,,0.00,weatherlink.com 1.10,2013-04-21 04:07:00,
2013-04-21 00:22:00,29.0,25.0,30.43,NNE,26,0.0,0.0,84,0.00,,,0.00,weatherlink.com 1.10,2013-04-21 04:22:00,
2013-04-21 00:37:00,29.2,25.0,30.43,NNE,26,0.0,0.0,83,0.00,,,0.00,weatherlink.com 1.10,2013-04-21 04:37:00,
2013-04-21 00:52:00,29.4,25.0,30.44,NNE,26,0.0,0.0,82,0.00,,,0.00,weatherlink.com 1.10,2013-04-21 04:52:00,
2013-04-21 01:07:00,29.3,25.0,30.44,NNE,26,0.0,2.0,83,0.00,,,0.00,weatherlink.com 1.10,2013-04-21 05:07:00,
2013-04-21 01:22:00,28.5,25.0,30.45,NNE,26,2.0,3.0,85,0.00,,,0.00,weatherlink.com 1.10,2013-04-21 05:22:00,
2013-04-21 01:37:00,27.8,24.0,30.45,NNE,26,2.0,4.0,87,0.00,,,0.00,weatherlink.com 1.10,2013-04-21 05:37:00,
2013-04-21 01:53:00,27.6,24.0,30.45,NNE,26,1.0,4.0,87,0.00,,,0.00,weatherlink.com 1.10,2013-04-21 05:53:00,
2013-04-21 02:08:00,27.5,24.0,30.46,NNE,26,0.0,2.0,88,0.00,,,0.00,weatherlink.com 1.10,2013-04-21 06:08:00,
2013-04-21 02:23:00,27.7,25.0,30.46,NNE,26,0.0,0.0,88,0.00,,,0.00,weatherlink.com 1.10,2013-04-21 06:23:00,
2013-04-21 02:38:00,28.0,25.0,30.47,NNE,26,0.0,0.0,87,0.00,,,0.00,weatherlink.com 1.10,2013-04-21 06:38:00,
2013-04-21 02:53:00,27.8,25.0,30.47,NNE,26,0.0,2.0,88,0.00,,,0.00,weatherlink.com 1.10,2013-04-21 06:53:00,
2013-04-21 03:08:00,27.5,24.0,30.48,NNE,26,0.0,2.0,88,0.00,,,0.00,weatherlink.com 1.10,2013-04-21 07:08:00,
2013-04-21 03:23:00,27.5,24.0,30.48,NNE,26,2.0,3.0,88,0.00,,,0.00,weatherlink.com 1.10,2013-04-21 07:23:00,
2013-04-21 03:38:00,27.2,24.0,30.48,NNE,26,0.0,0.0,88,0.00,,,0.00,weatherlink.com 1.10,2013-04-21 07:38:00,
2013-04-21 03:53:00,27.0,24.0,30.49,NNE,26,0.0,2.0,89,0.00,,,0.00,weatherlink.com 1.10,2013-04-21 07:53:00,
2013-04-21 04:08:00,27.0,24.0,30.49,NNE,26,0.0,0.0,89,0.00,,,0.00,weatherlink.com 1.10,2013-04-21 08:08:00,
2013-04-21 04:23:00,26.8,24.0,30.49,NNE,26,0.0,0.0,89,0.00,,,0.00,weatherlink.com 1.10,2013-04-21 08:23:00,
2013-04-21 04:38:00,27.0,24.0,30.50,NNE,26,0.0,1.0,89,0.00,,,0.00,weatherlink.com 1.10,2013-04-21 08:38:00,
2013-04-21 04:53:00,26.6,24.0,30.50,NNE,26,0.0,0.0,90,0.00,,,0.00,weatherlink.com 1.10,2013-04-21 08:53:00,
2013-04-21 05:08:00,26.5,24.0,30.51,NNE,26,0.0,0.0,90,0.00,,,0.00,weatherlink.com 1.10,2013-04-21 09:08:00,
2013-04-21 05:23:00,26.1,23.0,30.52,NNE,26,0.0,0.0,89,0.00,,,0.00,weatherlink.com 1.10,2013-04-21 09:23:00,
2013-04-21 05:38:00,26.1,24.0,30.52,NNE,26,0.0,2.0,90,0.00,,,0.00,weatherlink.com 1.10,2013-04-21 09:38:00,
2013-04-21 05:53:00,26.0,24.0,30.53,NNE,26,0.0,2.0,90,0.00,,,0.00,weatherlink.com 1.10,2013-04-21 09:53:00,
2013-04-21 06:08:00,25.9,23.0,30.54,NNE,26,0.0,1.0,89,0.00,,,0.00,weatherlink.com 1.10,2013-04-21 10:08:00,
2013-04-21 06:23:00,25.9,23.0,30.55,NNE,26,0.0,0.0,88,0.00,,,0.00,weatherlink.com 1.10,2013-04-21 10:23:00,
2013-04-21 06:38:00,25.5,23.0,30.55,NNE,26,2.0,3.0,88,0.00,,,0.00,weatherlink.com 1.10,2013-04-21 10:38:00,
2013-04-21 06:53:00,25.8,23.0,30.56,NNE,26,0.0,2.0,89,0.00,,,0.00,weatherlink.com 1.10,2013-04-21 10:53:00,
2013-04-21 07:08:00,26.6,24.0,30.57,NNE,26,0.0,2.0,89,0.00,,,0.00,weatherlink.com 1.10,2013-04-21 11:08:00,
2013-04-21 07:23:00,27.9,24.0,30.58,NNE,26,2.0,3.0,86,0.00,,,0.00,weatherlink.com 1.10,2013-04-21 11:23:00,
2013-04-21 07:38:00,28.9,25.0,30.59,NNE,26,1.0,3.0,85,0.00,,,0.00,weatherlink.com 1.10,2013-04-21 11:38:00,
2013-04-21 07:53:00,30.2,25.0,30.60,NE,54,1.0,3.0,82,0.00,,,0.00,weatherlink.com 1.10,2013-04-21 11:53:00,
2013-04-21 08:08:00,30.2,25.0,30.61,NE,44,3.0,5.0,81,0.00,,,0.00,weatherlink.com 1.10,2013-04-21 12:08:00,
2013-04-21 08:23:00,30.1,25.0,30.61,NNE,22,5.0,6.0,80,0.00,,,0.00,weatherlink.com 1.10,2013-04-21 12:23:00,
2013-04-21 08:38:00,31.0,25.0,30.62,NE,53,3.0,7.0,78,0.00,,,0.00,weatherlink.com 1.10,2013-04-21 12:38:00,
2013-04-21 08:53:00,30.9,25.0,30.62,NNE,17,10.0,11.0,79,0.00,,,0.00,weatherlink.com 1.10,2013-04-21 12:53:00,
2013-04-21 09:08:00,30.8,25.0,30.63,ENE,61,2.0,5.0,79,0.00,,,0.00,weatherlink.com 1.10,2013-04-21 13:08:00,
2013-04-21 09:24:00,33.2,27.0,30.63,ENE,74,5.0,5.0,77,0.00,,,0.00,weatherlink.com 1.10,2013-04-21 13:24:00,
2013-04-21 09:39:00,34.3,24.0,30.64,ENE,69,1.0,7.0,67,0.00,,,0.00,weatherlink.com 1.10,2013-04-21 13:39:00,
2013-04-21 09:54:00,33.8,23.0,30.64,North,5,1.0,7.0,65,0.00,,,0.00,weatherlink.com 1.10,2013-04-21 13:54:00,
2013-04-21 10:09:00,34.1,23.0,30.64,NE,47,0.0,6.0,63,0.00,,,0.00,weatherlink.com 1.10,2013-04-21 14:09:00,
2013-04-21 10:24:00,33.5,23.0,30.65,North,5,3.0,7.0,66,0.00,,,0.00,weatherlink.com 1.10,2013-04-21 14:24:00,
2013-04-21 10:39:00,33.4,23.0,30.65,NNE,19,0.0,10.0,66,0.00,,,0.00,weatherlink.com 1.10,2013-04-21 14:39:00,
2013-04-21 10:54:00,33.2,22.0,30.65,NE,53,5.0,8.0,64,0.00,,,0.00,weatherlink.com 1.10,2013-04-21 14:54:00,
2013-04-21 11:09:00,34.7,24.0,30.65,NNE,21,9.0,10.0,64,0.00,,,0.00,weatherlink.com 1.10,2013-04-21 15:09:00,
2013-04-21 11:24:00,36.2,24.0,30.64,ENE,61,3.0,9.0,61,0.00,,,0.00,weatherlink.com 1.10,2013-04-21 15:24:00,
2013-04-21 11:39:00,36.1,22.0,30.64,North,5,4.0,14.0,58,0.00,,,0.00,weatherlink.com 1.10,2013-04-21 15:39:00,
2013-04-21 11:54:00,37.4,24.0,30.63,NNW,342,7.0,11.0,58,0.00,,,0.00,weatherlink.com 1.10,2013-04-21 15:54:00,
2013-04-21 12:09:00,39.1,24.0,30.63,East,80,2.0,9.0,55,0.00,,,0.00,weatherlink.com 1.10,2013-04-21 16:09:00,
2013-04-21 12:24:00,41.0,24.0,30.62,NNE,16,6.0,9.0,52,0.00,,,0.00,weatherlink.com 1.10,2013-04-21 16:24:00,
2013-04-21 12:39:00,41.2,26.0,30.62,ENE,63,2.0,10.0,55,0.00,,,0.00,weatherlink.com 1.10,2013-04-21 16:39:00,
2013-04-21 12:54:00,41.8,25.0,30.62,ESE,103,4.0,7.0,51,0.00,,,0.00,weatherlink.com 1.10,2013-04-21 16:54:00,
2013-04-21 13:09:00,42.0,27.0,30.61,NE,39,7.0,12.0,55,0.00,,,0.00,weatherlink.com 1.10,2013-04-21 17:09:00,
2013-04-21 13:24:00,45.1,29.0,30.61,East,90,1.0,6.0,53,0.00,,,0.00,weatherlink.com 1.10,2013-04-21 17:24:00,
2013-04-21 13:39:00,45.5,27.0,30.60,SE,126,2.0,7.0,49,0.00,,,0.00,weatherlink.com 1.10,2013-04-21 17:39:00,
2013-04-21 13:54:00,45.2,24.0,30.59,North,350,2.0,10.0,43,0.00,,,0.00,weatherlink.com 1.10,2013-04-21 17:54:00,
2013-04-21 14:09:00,46.0,28.0,30.59,SE,133,3.0,10.0,50,0.00,,,0.00,weatherlink.com 1.10,2013-04-21 18:09:00,
2013-04-21 14:24:00,47.3,26.0,30.58,SSE,148,2.0,7.0,43,0.00,,,0.00,weatherlink.com 1.10,2013-04-21 18:24:00,
2013-04-21 14:39:00,47.5,23.0,30.57,NE,51,5.0,8.0,39,0.00,,,0.00,weatherlink.com 1.10,2013-04-21 18:39:00,
2013-04-21 14:54:00,48.7,26.0,30.57,East,90,5.0,10.0,42,0.00,,,0.00,weatherlink.com 1.10,2013-04-21 18:54:00,
2013-04-21 15:09:00,45.8,23.0,30.56,NNE,14,8.0,13.0,41,0.00,,,0.00,weatherlink.com 1.10,2013-04-21 19:09:00,
2013-04-21 15:24:00,49.4,24.0,30.56,ENE,68,0.0,7.0,37,0.00,,,0.00,weatherlink.com 1.10,2013-04-21 19:24:00,
2013-04-21 15:39:00,49.5,25.0,30.55,North,360,3.0,9.0,38,0.00,,,0.00,weatherlink.com 1.10,2013-04-21 19:39:00,
2013-04-21 15:54:00,49.1,26.0,30.54,SE,141,3.0,10.0,41,0.00,,,0.00,weatherlink.com 1.10,2013-04-21 19:54:00,
2013-04-21 16:09:00,51.3,24.0,30.53,ESE,122,0.0,5.0,35,0.00,,,0.00,weatherlink.com 1.10,2013-04-21 20:09:00,
2013-04-21 16:24:00,52.0,25.0,30.52,ENE,77,7.0,8.0,35,0.00,,,0.00,weatherlink.com 1.10,2013-04-21 20:24:00,
2013-04-21 16:39:00,47.8,30.0,30.52,NNW,345,6.0,10.0,51,0.00,,,0.00,weatherlink.com 1.10,2013-04-21 20:39:00,
2013-04-21 16:54:00,44.8,30.0,30.52,NNE,24,9.0,15.0,56,0.00,,,0.00,weatherlink.com 1.10,2013-04-21 20:54:00,
2013-04-21 17:09:00,45.4,31.0,30.51,NNE,20,10.0,13.0,58,0.00,,,0.00,weatherlink.com 1.10,2013-04-21 21:09:00,
2013-04-21 17:24:00,44.2,30.0,30.51,NNE,17,8.0,17.0,57,0.00,,,0.00,weatherlink.com 1.10,2013-04-21 21:24:00,
2013-04-21 17:39:00,43.1,29.0,30.51,NNE,28,10.0,15.0,59,0.00,,,0.00,weatherlink.com 1.10,2013-04-21 21:39:00,
2013-04-21 17:54:00,42.6,29.0,30.52,North,5,8.0,16.0,59,0.00,,,0.00,weatherlink.com 1.10,2013-04-21 21:54:00,
2013-04-21 18:09:00,42.3,29.0,30.52,NNE,19,7.0,16.0,59,0.00,,,0.00,weatherlink.com 1.10,2013-04-21 22:09:00,
2013-04-21 18:24:00,42.4,29.0,30.52,NNE,13,8.0,16.0,60,0.00,,,0.00,weatherlink.com 1.10,2013-04-21 22:24:00,
2013-04-21 18:39:00,42.0,28.0,30.52,NNE,12,10.0,16.0,57,0.00,,,0.00,weatherlink.com 1.10,2013-04-21 22:39:00,
2013-04-21 18:54:00,41.2,28.0,30.51,NNE,23,11.0,16.0,59,0.00,,,0.00,weatherlink.com 1.10,2013-04-21 22:54:00,
2013-04-21 19:10:00,41.0,28.0,30.51,NNE,26,10.0,13.0,60,0.00,,,0.00,weatherlink.com 1.10,2013-04-21 23:10:00,
2013-04-21 19:25:00,40.6,28.0,30.51,NNE,20,7.0,11.0,62,0.00,,,0.00,weatherlink.com 1.10,2013-04-21 23:25:00,
2013-04-21 19:40:00,40.1,28.0,30.52,NNE,30,8.0,12.0,62,0.00,,,0.00,weatherlink.com 1.10,2013-04-21 23:40:00,
2013-04-21 19:55:00,39.7,27.0,30.51,NNE,30,7.0,12.0,61,0.00,,,0.00,weatherlink.com 1.10,2013-04-21 23:55:00,
2013-04-21 20:10:00,39.2,27.0,30.52,NNE,32,6.0,10.0,63,0.00,,,0.00,weatherlink.com 1.10,2013-04-22 00:10:00,
2013-04-21 20:25:00,38.7,27.0,30.52,NNE,25,6.0,10.0,64,0.00,,,0.00,weatherlink.com 1.10,2013-04-22 00:25:00,
2013-04-21 20:40:00,38.4,27.0,30.52,NE,38,6.0,9.0,65,0.00,,,0.00,weatherlink.com 1.10,2013-04-22 00:40:00,
2013-04-21 20:55:00,38.0,27.0,30.52,NNE,28,9.0,11.0,65,0.00,,,0.00,weatherlink.com 1.10,2013-04-22 00:55:00,
2013-04-21 21:10:00,37.7,27.0,30.52,NNE,32,6.0,10.0,65,0.00,,,0.00,weatherlink.com 1.10,2013-04-22 01:10:00,
2013-04-21 21:25:00,37.2,27.0,30.52,NE,36,4.0,8.0,66,0.00,,,0.00,weatherlink.com 1.10,2013-04-22 01:25:00,
2013-04-21 21:40:00,36.9,26.0,30.52,NNE,29,5.0,8.0,66,0.00,,,0.00,weatherlink.com 1.10,2013-04-22 01:40:00,
2013-04-21 21:55:00,36.6,27.0,30.52,NNE,30,3.0,6.0,67,0.00,,,0.00,weatherlink.com 1.10,2013-04-22 01:55:00,
2013-04-21 22:10:00,36.2,27.0,30.52,NE,46,1.0,4.0,68,0.00,,,0.00,weatherlink.com 1.10,2013-04-22 02:10:00,
2013-04-21 22:25:00,35.9,26.0,30.52,NE,41,1.0,4.0,68,0.00,,,0.00,weatherlink.com 1.10,2013-04-22 02:25:00,
2013-04-21 22:40:00,35.9,26.0,30.52,ENE,69,0.0,3.0,68,0.00,,,0.00,weatherlink.com 1.10,2013-04-22 02:40:00,
2013-04-21 22:55:00,35.9,27.0,30.51,East,88,1.0,6.0,69,0.00,,,0.00,weatherlink.com 1.10,2013-04-22 02:55:00,
2013-04-21 23:10:00,35.9,27.0,30.51,ENE,77,0.0,5.0,69,0.00,,,0.00,weatherlink.com 1.10,2013-04-22 03:10:00,
2013-04-21 23:25:00,36.0,27.0,30.50,East,101,0.0,3.0,71,0.00,,,0.00,weatherlink.com 1.10,2013-04-22 03:25:00,
2013-04-21 23:40:00,36.3,27.0,30.50,SE,128,3.0,7.0,68,0.00,,,0.00,weatherlink.com 1.10,2013-04-22 03:40:00,
2013-04-21 23:55:00,36.6,27.0,30.50,SE,136,3.0,4.0,68,0.00,,,0.00,weatherlink.com 1.10,2013-04-22 03:55:00,